Вернуться в каталог

FENGYUN 1C DEB

АктивенSSO
NORAD 30276·DEBRIS·🇨🇳 China

Запущен May 10, 1999 с Taiyuan Satellite Launch Center

Loading…

Ближайшие Пролёты (ближайшие 24 часа)

TLE

СвежийSource: Space-Track

Эпоха: Sep 14, 2026, 04:21 UTC

1 30276U 99025YM  26257.18168890  .00001628  00000-0  66582-3 0  9993
2 30276  98.8445 337.3238 0023752   9.9913 350.1735 14.28526792 14394

Отслеживайте FENGYUN 1C DEB в реальном времени с AllMySat

Download on the App Store